Meath Environmental Platform

Observations

Time Sensor AQI SAQ Temp °C Hum % Pres Pa CO μg/m³ H₂S μg/m³ NO μg/m³ NO₂ μg/m³ O₃ μg/m³ SO₂ μg/m³ CO₂e PPM VOC PPM PM1 μg/m³ PM2.5 μg/m³ PM4 μg/m³ PM10 μg/m³ TPS µm
Tuesday 11 August 2026
06:15 Trim Patrick St 1 10.9 82 38,460 0.45 2.66 4.45 46.38 0 0 4.57 7.14 7.86
06:14 Trim Patrick St 1 10.9 82 38,460 0.45 3.59 4.53 49.07 0 0 4.57 8.53 9.39
06:13 Trim Market St 2 12.4 75 45,645 0.39 0 3.9 12.99 30.53 0 2.85 3.77 6.34
06:13 Trim Patrick St 1 10.9 82 38,460 0.45 4.49 4.53 51.75 0 0 4.57 7.84 8.62
06:12 Trim Patrick St 1 10.9 82 38,460 0.45 5.78 4.5 63.58 0 0 5.43 9.24 10.17
06:11 Trim Patrick St 1 10.9 82 38,460 0.45 4.88 4.52 58.59 0 0 3.71 7.85 8.64
06:10 Trim Patrick St 1 10.9 82 38,460 0.45 3.1 4.67 51.77 0 0 4.57 8.54 9.39
06:09 Trim Market St 2 12.4 75 46,204 0.38 0 3.92 11.91 30.5 0 2.85 3.29 5.74
06:09 Trim Patrick St 1 10.9 83 38,460 0.44 3.41 5.13 51.35 0 0 4.57 7.83 8.61
06:08 Trim Patrick St 1 10.9 83 38,460 0.44 3.72 5.1 58.23 0 0 3.71 7.14 7.85
06:07 Trim Patrick St 1 10.9 82 38,460 0.45 3.72 4.51 61.14 0 0 5.43 9.23 10.15
06:06 Trim Market St 2 12.4 75 46,741 0.38 0 3.89 12.57 30.16 0 3.56 4.73 8.13
06:06 Trim Patrick St 1 10.9 83 38,460 0.45 3.57 4.07 66.13 0 0 5.43 9.91 10.9
06:05 Trim Patrick St 1 10.9 83 38,460 0.45 3.1 3.92 61.99 0 0 4.57 8.52 9.38
06:04 Trim Market St 2 12.4 75 46,916 0.38 0 3.82 11.12 31.51 0 2.14 3.78 6.34
06:04 Trim Patrick St 1 10.9 83 38,460 0.45 3.1 4 56.18 0 0 4.57 9.22 10.14
06:03 Trim Patrick St 1 10.9 82 38,460 0.41 1.99 4.03 40.27 0 0 5.43 9.23 10.15
06:02 Trim Patrick St 1 10.9 82 38,460 0.43 1.87 4.05 34.92 0 0 4.57 7.84 8.62
06:01 Trim Market St 2 12.4 75 47,138 0.39 0 3.91 11.68 31.24 0 1.43 3.3 6.34
06:00 Trim Patrick St 1 10.9 82 38,460 0.41 1.27 4.06 29.69 1.83 0 4.57 8.54 9.39